• In Kazakhstan
  • List of Countries
  • For 7 days
  • Water Temperature
  • Satellite Maps
  • Weather Map
  • News
  • Weather Widgets
  • user-avatar
    Login

    Hourly Weather Timonino

    Today, 23 March, Saturday

    Time Temperature Precipitation Wind Pressure Humidity
    00:00 -1°C° 0.1 mm 5 mps 747 mmHg 84%
    01:00 -1°C° 0.1 mm 5 mps 748 mmHg 85%
    02:00 -1°C° 0 mm 4 mps 748 mmHg 86%
    03:00 -1°C° 0 mm 4 mps 749 mmHg 88%
    04:00 -1°C° 0 mm 4 mps 750 mmHg 89%
    05:00 -1°C° 0 mm 4 mps 750 mmHg 90%
    06:00 0°C° 0 mm 3 mps 751 mmHg 90%
    07:00 +1°C° 0 mm 3 mps 752 mmHg 90%
    08:00 +1°C° 0 mm 3 mps 752 mmHg 90%
    09:00 +3°C° 0 mm 2 mps 752 mmHg 85%
    10:00 +3°C° 0 mm 2 mps 752 mmHg 81%
    11:00 +5°C° 0 mm 1 mps 753 mmHg 77%
    12:00 +5°C° 0 mm 1 mps 752 mmHg 76%
    13:00 +5°C° 0 mm 1 mps 752 mmHg 75%
    14:00 +4°C° 0 mm 0 mps 752 mmHg 74%
    15:00 +5°C° 0 mm 1 mps 752 mmHg 77%
    16:00 +4°C° 0 mm 1 mps 751 mmHg 80%
    17:00 +4°C° 0 mm 1 mps 751 mmHg 83%
    18:00 +2°C° 0 mm 2 mps 751 mmHg 85%
    19:00 +1°C° 0 mm 2 mps 750 mmHg 88%
    20:00 -2°C° 0 mm 2 mps 750 mmHg 91%
    21:00 -1°C° 0 mm 3 mps 749 mmHg 89%
    22:00 -1°C° 0 mm 3 mps 748 mmHg 88%
    23:00 0°C° 0 mm 3 mps 748 mmHg 86%

    Tomorrow, 24 March, Sunday

    Time Temperature Precipitation Wind Pressure Humidity
    00:00 -1°C° 0.1 mm 4 mps 747 mmHg 86%
    01:00 -1°C° 0.1 mm 4 mps 746 mmHg 86%
    02:00 -1°C° 0.1 mm 4 mps 746 mmHg 85%
    03:00 -1°C° 0.7 mm 4 mps 745 mmHg 87%
    04:00 -1°C° 0.7 mm 4 mps 744 mmHg 88%
    05:00 -1°C° 0.7 mm 4 mps 743 mmHg 90%
    06:00 -1°C° 0 mm 4 mps 743 mmHg 90%
    07:00 +1°C° 0 mm 3 mps 743 mmHg 90%
    08:00 +1°C° 0 mm 3 mps 742 mmHg 89%
    09:00 +2°C° 0 mm 3 mps 742 mmHg 88%
    10:00 +1°C° 0 mm 4 mps 742 mmHg 86%
    11:00 +3°C° 0 mm 4 mps 742 mmHg 85%
    12:00 +3°C° 0.1 mm 4 mps 742 mmHg 79%
    13:00 +3°C° 0.1 mm 4 mps 742 mmHg 72%
    14:00 +3°C° 0.1 mm 5 mps 742 mmHg 66%
    15:00 +3°C° 0 mm 4 mps 742 mmHg 68%
    16:00 +2°C° 0 mm 3 mps 742 mmHg 69%
    17:00 +1°C° 0 mm 3 mps 742 mmHg 71%
    18:00 0°C° 0 mm 3 mps 742 mmHg 74%
    19:00 -1°C° 0 mm 2 mps 742 mmHg 78%
    20:00 -2°C° 0 mm 2 mps 743 mmHg 81%
    21:00 -2°C° 0 mm 2 mps 743 mmHg 81%
    22:00 -2°C° 0 mm 2 mps 742 mmHg 82%
    23:00 -3°C° 0 mm 2 mps 742 mmHg 82%

    Day after tomorrow, 25 March, Monday

    Time Temperature Precipitation Wind Pressure Humidity
    00:00 -4°C° 0 mm 3 mps 742 mmHg 82%
    01:00 -4°C° 0 mm 3 mps 742 mmHg 82%
    02:00 -4°C° 0 mm 3 mps 742 mmHg 82%
    03:00 -4°C° 0 mm 3 mps 742 mmHg 82%
    04:00 -4°C° 0 mm 3 mps 742 mmHg 83%
    05:00 -4°C° 0 mm 3 mps 741 mmHg 83%
    06:00 -2°C° 0 mm 3 mps 741 mmHg 81%
    07:00 -2°C° 0 mm 3 mps 741 mmHg 78%
    08:00 -1°C° 0 mm 3 mps 741 mmHg 75%
    09:00 0°C° 0 mm 4 mps 741 mmHg 72%
    10:00 +1°C° 0 mm 4 mps 741 mmHg 68%
    11:00 +3°C° 0 mm 4 mps 741 mmHg 64%
    12:00 +4°C° 0.1 mm 4 mps 741 mmHg 63%
    13:00 +4°C° 0.1 mm 4 mps 741 mmHg 62%
    14:00 +5°C° 0.1 mm 4 mps 741 mmHg 60%
    15:00 +4°C° 0.1 mm 3 mps 741 mmHg 64%
    16:00 +4°C° 0.1 mm 2 mps 741 mmHg 68%
    17:00 +3°C° 0.1 mm 2 mps 741 mmHg 72%
    18:00 +2°C° 0 mm 2 mps 741 mmHg 73%
    19:00 +1°C° 0 mm 2 mps 741 mmHg 74%
    20:00 -1°C° 0 mm 2 mps 741 mmHg 76%
    21:00 -1°C° 0 mm 2 mps 741 mmHg 77%
    22:00 -1°C° 0 mm 2 mps 741 mmHg 78%
    23:00 -1°C° 0 mm 2 mps 741 mmHg 79%

    26 March, Tuesday

    Time Temperature Precipitation Wind Pressure Humidity
    00:00 -2°C° 0 mm 2 mps 741 mmHg 80%
    01:00 -2°C° 0 mm 2 mps 741 mmHg 81%
    02:00 -2°C° 0 mm 2 mps 741 mmHg 82%
    03:00 -3°C° 0 mm 2 mps 740 mmHg 83%
    04:00 -3°C° 0 mm 2 mps 740 mmHg 84%
    05:00 -3°C° 0 mm 2 mps 740 mmHg 86%
    06:00 -2°C° 0 mm 2 mps 739 mmHg 82%
    07:00 -1°C° 0 mm 2 mps 739 mmHg 78%
    08:00 +1°C° 0 mm 2 mps 739 mmHg 74%
    09:00 +1°C° 0 mm 3 mps 739 mmHg 72%
    10:00 +2°C° 0 mm 3 mps 739 mmHg 69%
    11:00 +3°C° 0 mm 3 mps 739 mmHg 67%
    12:00 +3°C° 0.4 mm 3 mps 739 mmHg 69%
    13:00 +3°C° 0.4 mm 4 mps 739 mmHg 71%
    14:00 +1°C° 0.4 mm 4 mps 739 mmHg 73%
    15:00 0°C° 0.1 mm 4 mps 739 mmHg 74%
    16:00 -1°C° 0.1 mm 4 mps 739 mmHg 75%
    17:00 -1°C° 0.1 mm 5 mps 739 mmHg 77%
    18:00 -2°C° 0 mm 4 mps 740 mmHg 78%
    19:00 -3°C° 0 mm 4 mps 740 mmHg 80%
    20:00 -4°C° 0 mm 4 mps 740 mmHg 81%
    21:00 -4°C° 0 mm 4 mps 740 mmHg 81%
    22:00 -5°C° 0 mm 4 mps 741 mmHg 81%
    23:00 -5°C° 0 mm 4 mps 741 mmHg 81%

    27 March, Wednesday

    Time Temperature Precipitation Wind Pressure Humidity
    00:00 -5°C° 0 mm 4 mps 741 mmHg 81%
    01:00 -7°C° 0 mm 4 mps 741 mmHg 81%
    02:00 -7°C° 0 mm 5 mps 741 mmHg 81%
    03:00 -7°C° 0 mm 5 mps 741 mmHg 81%
    04:00 -7°C° 0 mm 5 mps 741 mmHg 80%
    05:00 -7°C° 0 mm 5 mps 742 mmHg 79%
    06:00 -6°C° 0 mm 6 mps 742 mmHg 76%
    07:00 -6°C° 0 mm 6 mps 742 mmHg 73%
    08:00 -6°C° 0 mm 7 mps 742 mmHg 70%
    09:00 -6°C° 0.1 mm 7 mps 743 mmHg 67%
    10:00 -4°C° 0.1 mm 7 mps 743 mmHg 64%
    11:00 -3°C° 0.1 mm 7 mps 744 mmHg 62%
    12:00 -3°C° 0 mm 7 mps 744 mmHg 60%
    13:00 -2°C° 0 mm 7 mps 745 mmHg 59%
    14:00 -2°C° 0 mm 7 mps 745 mmHg 58%
    15:00 -2°C° 0 mm 7 mps 746 mmHg 58%
    16:00 -2°C° 0 mm 6 mps 747 mmHg 58%
    17:00 -3°C° 0 mm 6 mps 748 mmHg 57%
    18:00 -2°C° 0 mm 5 mps 749 mmHg 62%
    19:00 -3°C° 0 mm 4 mps 749 mmHg 67%
    20:00 -4°C° 0 mm 4 mps 750 mmHg 72%
    21:00 -4°C° 0 mm 4 mps 751 mmHg 74%
    22:00 -5°C° 0 mm 3 mps 751 mmHg 76%
    23:00 -5°C° 0 mm 3 mps 751 mmHg 78%

    28 March, Thursday

    Time Temperature Precipitation Wind Pressure Humidity
    00:00 -5°C° 0 mm 3 mps 751 mmHg 79%
    01:00 -6°C° 0 mm 3 mps 752 mmHg 80%
    02:00 -6°C° 0 mm 3 mps 752 mmHg 80%
    03:00 -6°C° 0 mm 3 mps 752 mmHg 78%
    04:00 -6°C° 0 mm 3 mps 752 mmHg 76%
    05:00 -5°C° 0 mm 3 mps 752 mmHg 74%
    06:00 -5°C° 0.1 mm 3 mps 752 mmHg 75%
    07:00 -4°C° 0.1 mm 4 mps 752 mmHg 76%
    08:00 -4°C° 0.1 mm 4 mps 752 mmHg 76%
    09:00 -2°C° 0.1 mm 4 mps 752 mmHg 74%
    10:00 -1°C° 0.1 mm 4 mps 752 mmHg 72%
    11:00 0°C° 0.1 mm 5 mps 752 mmHg 70%
    12:00 0°C° 0 mm 5 mps 752 mmHg 70%
    13:00 +1°C° 0 mm 4 mps 752 mmHg 69%
    14:00 +1°C° 0 mm 4 mps 752 mmHg 68%
    15:00 +1°C° 0 mm 4 mps 751 mmHg 70%
    16:00 +2°C° 0 mm 3 mps 751 mmHg 73%
    17:00 +2°C° 0 mm 3 mps 751 mmHg 75%
    18:00 +1°C° 0 mm 3 mps 751 mmHg 79%
    19:00 0°C° 0 mm 3 mps 751 mmHg 83%
    20:00 +1°C° 0 mm 2 mps 751 mmHg 87%
    21:00 0°C° 0 mm 3 mps 751 mmHg 87%
    22:00 0°C° 0 mm 3 mps 750 mmHg 87%
    23:00 +1°C° 0 mm 3 mps 750 mmHg 87%
    Show more